Hourly Weather Kozyutivka

Today, 25 October, Sunday

Time Temperature Precipitation Wind Pressure Humidity
00:00 +11°C° 0 mm 3 mps 744 mmHg 77%
01:00 +11°C° 0 mm 3 mps 744 mmHg 75%
02:00 +10°C° 0 mm 3 mps 744 mmHg 73%
03:00 +10°C° 0 mm 3 mps 744 mmHg 76%
04:00 +10°C° 0 mm 3 mps 744 mmHg 78%
05:00 +10°C° 0 mm 3 mps 744 mmHg 81%
06:00 +10°C° 0 mm 4 mps 745 mmHg 81%
07:00 +11°C° 0 mm 4 mps 745 mmHg 81%
08:00 +12°C° 0 mm 4 mps 746 mmHg 81%
09:00 +13°C° 0 mm 4 mps 746 mmHg 75%
10:00 +14°C° 0 mm 4 mps 746 mmHg 69%
11:00 +15°C° 0 mm 4 mps 747 mmHg 64%
12:00 +15°C° 0 mm 4 mps 747 mmHg 60%
13:00 +17°C° 0 mm 4 mps 747 mmHg 57%
14:00 +17°C° 0 mm 4 mps 748 mmHg 53%
15:00 +14°C° 0 mm 3 mps 748 mmHg 58%
16:00 +13°C° 0 mm 3 mps 748 mmHg 62%
17:00 +13°C° 0 mm 2 mps 748 mmHg 67%
18:00 +12°C° 0 mm 2 mps 749 mmHg 69%
19:00 +11°C° 0 mm 1 mps 749 mmHg 71%
20:00 +11°C° 0 mm 1 mps 750 mmHg 74%
21:00 +10°C° 0 mm 1 mps 750 mmHg 76%
22:00 +10°C° 0 mm 1 mps 750 mmHg 78%
23:00 +10°C° 0 mm 1 mps 750 mmHg 80%

Tomorrow, 26 October, Monday

Time Temperature Precipitation Wind Pressure Humidity
00:00 +9°C° 0 mm 1 mps 750 mmHg 81%
01:00 +8°C° 0 mm 2 mps 750 mmHg 82%
02:00 +8°C° 0 mm 2 mps 751 mmHg 84%
03:00 +8°C° 0 mm 2 mps 751 mmHg 85%
04:00 +7°C° 0 mm 2 mps 751 mmHg 86%
05:00 +7°C° 0 mm 2 mps 751 mmHg 87%
06:00 +8°C° 0 mm 2 mps 751 mmHg 84%
07:00 +8°C° 0 mm 2 mps 751 mmHg 80%
08:00 +9°C° 0 mm 2 mps 752 mmHg 76%
09:00 +11°C° 0 mm 3 mps 752 mmHg 68%
10:00 +12°C° 0 mm 3 mps 752 mmHg 61%
11:00 +14°C° 0 mm 3 mps 752 mmHg 54%
12:00 +14°C° 0 mm 3 mps 752 mmHg 52%
13:00 +14°C° 0 mm 3 mps 751 mmHg 51%
14:00 +16°C° 0 mm 3 mps 751 mmHg 49%
15:00 +13°C° 0 mm 3 mps 751 mmHg 54%
16:00 +12°C° 0 mm 3 mps 751 mmHg 59%
17:00 +11°C° 0 mm 3 mps 751 mmHg 64%
18:00 +11°C° 0 mm 3 mps 751 mmHg 66%
19:00 +10°C° 0 mm 3 mps 751 mmHg 67%
20:00 +10°C° 0 mm 3 mps 752 mmHg 69%
21:00 +10°C° 0 mm 4 mps 752 mmHg 69%
22:00 +8°C° 0 mm 4 mps 752 mmHg 69%
23:00 +8°C° 0 mm 4 mps 752 mmHg 69%

Day after tomorrow, 27 October, Tuesday

Time Temperature Precipitation Wind Pressure Humidity
00:00 +8°C° 0 mm 4 mps 752 mmHg 69%
01:00 +8°C° 0 mm 4 mps 752 mmHg 70%
02:00 +7°C° 0 mm 4 mps 752 mmHg 70%
03:00 +7°C° 0 mm 4 mps 752 mmHg 70%
04:00 +7°C° 0 mm 4 mps 752 mmHg 70%
05:00 +7°C° 0 mm 4 mps 752 mmHg 70%
06:00 +7°C° 0 mm 4 mps 752 mmHg 68%
07:00 +8°C° 0 mm 5 mps 752 mmHg 65%
08:00 +8°C° 0 mm 5 mps 752 mmHg 63%
09:00 +9°C° 0 mm 5 mps 753 mmHg 59%
10:00 +12°C° 0 mm 5 mps 753 mmHg 54%
11:00 +13°C° 0 mm 5 mps 753 mmHg 50%
12:00 +13°C° 0 mm 5 mps 753 mmHg 48%
13:00 +14°C° 0 mm 5 mps 753 mmHg 47%
14:00 +14°C° 0 mm 5 mps 753 mmHg 45%
15:00 +13°C° 0 mm 5 mps 753 mmHg 49%
16:00 +12°C° 0 mm 4 mps 753 mmHg 53%
17:00 +11°C° 0 mm 4 mps 753 mmHg 57%
18:00 +10°C° 0 mm 4 mps 753 mmHg 57%
19:00 +10°C° 0 mm 4 mps 753 mmHg 57%
20:00 +8°C° 0 mm 5 mps 753 mmHg 57%
21:00 +8°C° 0 mm 5 mps 753 mmHg 59%
22:00 +7°C° 0 mm 4 mps 753 mmHg 62%
23:00 +7°C° 0 mm 4 mps 753 mmHg 65%

28 October, Wednesday

Time Temperature Precipitation Wind Pressure Humidity
00:00 +6°C° 0 mm 4 mps 753 mmHg 66%
01:00 +6°C° 0 mm 5 mps 753 mmHg 68%
02:00 +5°C° 0 mm 5 mps 753 mmHg 70%
03:00 +5°C° 0 mm 5 mps 753 mmHg 72%
04:00 +5°C° 0 mm 5 mps 753 mmHg 74%
05:00 +3°C° 0 mm 5 mps 753 mmHg 76%
06:00 +5°C° 0 mm 5 mps 753 mmHg 73%
07:00 +4°C° 0 mm 6 mps 753 mmHg 70%
08:00 +5°C° 0 mm 6 mps 754 mmHg 67%
09:00 +7°C° 0 mm 6 mps 753 mmHg 60%
10:00 +9°C° 0 mm 7 mps 753 mmHg 53%
11:00 +10°C° 0 mm 7 mps 753 mmHg 47%
12:00 +11°C° 0 mm 7 mps 753 mmHg 43%
13:00 +11°C° 0 mm 7 mps 753 mmHg 39%
14:00 +12°C° 0 mm 7 mps 752 mmHg 35%
15:00 +11°C° 0 mm 6 mps 752 mmHg 34%
16:00 +10°C° 0 mm 6 mps 752 mmHg 33%
17:00 +9°C° 0 mm 5 mps 752 mmHg 33%
18:00 +8°C° 0 mm 5 mps 752 mmHg 34%
19:00 +8°C° 0 mm 5 mps 752 mmHg 35%
20:00 +7°C° 0 mm 5 mps 752 mmHg 37%
21:00 +7°C° 0 mm 5 mps 752 mmHg 38%
22:00 +6°C° 0 mm 5 mps 752 mmHg 40%
23:00 +5°C° 0 mm 5 mps 752 mmHg 42%

29 October, Thursday

Time Temperature Precipitation Wind Pressure Humidity
00:00 +5°C° 0 mm 5 mps 752 mmHg 44%
01:00 +5°C° 0 mm 5 mps 752 mmHg 47%
02:00 +3°C° 0 mm 5 mps 752 mmHg 49%
03:00 +3°C° 0 mm 5 mps 752 mmHg 52%
04:00 +3°C° 0 mm 5 mps 752 mmHg 55%
05:00 +3°C° 0 mm 5 mps 752 mmHg 58%
06:00 +4°C° 0 mm 6 mps 752 mmHg 60%
07:00 +4°C° 0 mm 6 mps 751 mmHg 62%
08:00 +4°C° 0 mm 6 mps 751 mmHg 64%
09:00 +5°C° 0 mm 6 mps 751 mmHg 62%
10:00 +8°C° 0 mm 6 mps 751 mmHg 59%
11:00 +9°C° 0 mm 5 mps 751 mmHg 56%
12:00 +10°C° 0 mm 5 mps 751 mmHg 55%
13:00 +10°C° 0 mm 5 mps 750 mmHg 54%
14:00 +12°C° 0 mm 5 mps 750 mmHg 53%
15:00 +11°C° 0 mm 4 mps 750 mmHg 56%
16:00 +10°C° 0 mm 4 mps 750 mmHg 59%
17:00 +9°C° 0 mm 3 mps 750 mmHg 62%
18:00 +9°C° 0 mm 3 mps 750 mmHg 63%
19:00 +9°C° 0 mm 3 mps 750 mmHg 64%
20:00 +9°C° 0 mm 3 mps 750 mmHg 65%
21:00 +8°C° 0 mm 3 mps 750 mmHg 66%
22:00 +8°C° 0 mm 3 mps 750 mmHg 67%
23:00 +7°C° 0 mm 3 mps 749 mmHg 68%

30 October, Friday

Time Temperature Precipitation Wind Pressure Humidity
00:00 +7°C° 0 mm 3 mps 749 mmHg 68%
01:00 +7°C° 0 mm 3 mps 749 mmHg 67%
02:00 +7°C° 0 mm 3 mps 749 mmHg 67%
03:00 +7°C° 0 mm 3 mps 749 mmHg 69%
04:00 +7°C° 0 mm 2 mps 749 mmHg 71%
05:00 +7°C° 0 mm 2 mps 749 mmHg 73%
06:00 +8°C° 0 mm 2 mps 750 mmHg 73%
07:00 +8°C° 0 mm 2 mps 750 mmHg 74%
08:00 +9°C° 0 mm 3 mps 750 mmHg 75%
09:00 +10°C° 0 mm 2 mps 750 mmHg 72%
10:00 +12°C° 0 mm 2 mps 750 mmHg 68%
11:00 +13°C° 0 mm 1 mps 750 mmHg 65%
12:00 +13°C° 0 mm 1 mps 749 mmHg 65%
13:00 +14°C° 0 mm 1 mps 749 mmHg 64%
14:00 +14°C° 0 mm 1 mps 749 mmHg 64%
15:00 +13°C° 0.1 mm 1 mps 750 mmHg 68%
16:00 +12°C° 0.1 mm 1 mps 750 mmHg 73%
17:00 +12°C° 0.1 mm 2 mps 750 mmHg 77%
18:00 +10°C° 0.4 mm 2 mps 750 mmHg 80%
19:00 +11°C° 0.4 mm 1 mps 750 mmHg 82%
20:00 +11°C° 0.4 mm 1 mps 750 mmHg 84%
21:00 +10°C° 0.1 mm 2 mps 750 mmHg 86%
22:00 +9°C° 0.1 mm 2 mps 750 mmHg 88%
23:00 +9°C° 0.1 mm 2 mps 750 mmHg 90%
Show more